VR2R-13 Weather Reports


Display with metric or nautical units.
time (UTC)temp
F
wind
direction
speed
MPH
gust
MPH
rain 1hr
in
rain 24hr
in
rain mn
in
humidity
%
barometer
mb
20260510030635 63 71 2.0 6.0 0.00 0.00 0.00 98 916.5
20260510030334 63 58 2.0 6.0 0.00 0.00 0.00 98 916.6
20260510030035 63 101 4.0 6.0 0.00 0.00 0.00 98 916.6
20260510025834 63 83 1.0 5.0 0.00 0.00 0.00 98 916.6
20260510025435 63 106 3.0 6.0 0.00 0.00 0.00 98 916.6
20260510025334 63 89 4.0 6.0 0.00 0.00 0.00 97 916.6
20260510024836 63 83 3.0 5.0 0.00 0.00 0.00 98 916.6
20260510024834 63 86 3.0 5.0 0.00 0.00 0.00 98 916.6
20260510024334 63 98 1.0 5.0 0.00 0.00 0.00 98 916.7
20260510023334 62 105 0.0 4.0 0.00 0.00 0.00 98 916.7
20260510023035 63 89 4.0 6.0 0.00 0.00 0.00 98 916.7
20260510022834 62 101 0.0 6.0 0.00 0.00 0.00 98 916.8
20260510022435 63 100 0.0 6.0 0.00 0.00 0.00 98 916.8
20260510022334 63 93 5.0 6.0 0.00 0.00 0.00 98 916.8
20260510021334 63 97 0.0 5.0 0.00 0.00 0.00 98 916.9
20260510021235 63 107 2.0 5.0 0.00 0.00 0.00 98 916.9
20260510020834 62 96 0.0 3.0 0.00 0.00 0.00 98 916.9
20260510020635 62 86 1.0 3.0 0.00 0.00 0.00 98 916.9
20260510015833 63 96 2.0 4.0 0.00 0.00 0.00 98 916.9
20260510015435 62 60 0.0 4.0 0.00 0.00 0.00 98 916.8
20260510015333 63 98 2.0 7.0 0.00 0.00 0.00 98 916.8
20260510013635 62 84 7.0 9.0 0.00 0.00 0.00 98 916.8
20260510013333 63 70 5.0 11.0 0.00 0.00 0.00 98 916.8
20260510013035 62 72 6.0 11.0 0.00 0.00 0.00 98 916.8
20260510012833 62 77 7.0 11.0 0.00 0.00 0.00 98 916.8
20260510012434 62 73 3.0 11.0 0.00 0.00 0.00 98 916.8
20260510011333 62 75 2.0 8.0 0.00 0.00 0.00 98 916.7
20260510011235 62 82 6.0 9.0 0.00 0.00 0.00 98 916.7
20260510010634 62 64 2.0 9.0 0.00 0.00 0.00 98 916.6
20260510010334 62 85 4.0 7.0 0.00 0.00 0.00 98 916.6
20260510010034 62 56 6.0 8.0 0.00 0.00 0.00 98 916.5
20260510005833 62 71 4.0 8.0 0.00 0.00 0.00 98 916.5
20260510005434 62 70 6.0 8.0 0.00 0.00 0.00 98 916.6
20260510005333 62 86 2.0 7.0 0.00 0.00 0.00 98 916.5
20260510004835 62 65 7.0 9.0 0.00 0.00 0.00 97 916.5
20260510004333 62 77 6.0 9.0 0.00 0.00 0.00 98 916.4
20260510004234 62 80 6.0 9.0 0.00 0.00 0.00 97 916.4
20260510003833 62 81 7.0 9.0 0.00 0.00 0.00 98 916.3
20260510003634 62 67 7.0 9.0 0.00 0.00 0.00 98 916.3
20260510003333 62 73 6.0 9.0 0.00 0.00 0.00 98 916.3
20260510003034 62 70 7.0 9.0 0.00 0.00 0.00 98 916.2
20260510002833 62 68 7.0 8.0 0.00 0.00 0.00 98 916.1
20260510002434 62 70 6.0 7.0 0.00 0.00 0.00 97 916.2
20260510002333 62 80 2.0 7.0 0.00 0.00 0.00 98 916.2
20260510001834 62 66 5.0 7.0 0.00 0.00 0.00 98 916.1
20260510001332 62 44 2.0 5.0 0.00 0.00 0.00 98 916.1
20260510000833 62 53 5.0 8.0 0.00 0.00 0.00 97 916.1
20260510000634 62 69 5.0 8.0 0.00 0.00 0.00 98 916.1
20260510000333 62 57 6.0 8.0 0.00 0.00 0.00 98 916.0
20260510000034 62 79 6.0 8.0 0.00 0.00 0.00 97 916.0
20260509235832 62 75 5.0 7.0 0.00 0.00 0.00 98 916.0
20260509235333 62 64 6.0 9.0 0.00 0.00 0.00 98 916.0
20260509234834 62 66 7.0 9.0 0.00 0.00 0.00 98 916.0
20260509234832 62 56 7.0 9.0 0.00 0.00 0.00 98 916.0
20260509234332 62 63 7.0 10.0 0.00 0.00 0.00 97 916.0
20260509234234 62 55 7.0 11.0 0.00 0.00 0.00 97 915.9
20260509233832 62 33 8.0 12.0 0.00 0.00 0.00 98 915.9
20260509233634 62 72 8.0 12.0 0.00 0.00 0.00 98 915.8
20260509233332 62 64 10.0 12.0 0.00 0.00 0.00 98 915.8
20260509232832 62 58 8.0 11.0 0.00 0.00 0.00 98 915.8
20260509232434 62 61 9.0 11.0 0.00 0.00 0.00 98 915.7
20260509232332 62 61 4.0 11.0 0.00 0.00 0.00 98 915.7
20260509231834 62 98 10.0 12.0 0.00 0.00 0.00 98 915.5
20260509231832 62 57 10.0 12.0 0.00 0.00 0.00 98 915.5
20260509231332 62 77 9.0 12.0 0.00 0.00 0.00 98 915.5
20260509231234 62 78 4.0 11.0 0.00 0.00 0.00 98 915.6
20260509230832 62 76 9.0 11.0 0.00 0.00 0.00 97 915.5
20260509230633 62 69 9.0 11.0 0.00 0.00 0.00 98 915.6
20260509230332 62 70 9.0 11.0 0.00 0.00 0.00 97 915.6
20260509230033 62 65 8.0 10.0 0.00 0.00 0.00 98 915.5
20260509225833 62 62 6.0 9.0 0.00 0.00 0.00 98 915.5
20260509225433 62 77 7.0 9.0 0.00 0.00 0.00 97 915.5
20260509225332 62 89 7.0 9.0 0.00 0.00 0.00 97 915.5
20260509224834 62 54 6.0 8.0 0.00 0.00 0.00 98 915.4
20260509224832 62 79 6.0 8.0 0.00 0.00 0.00 98 915.4
20260509224332 62 83 6.0 8.0 0.00 0.00 0.00 97 915.5
20260509224233 62 80 6.0 8.0 0.00 0.00 0.00 97 915.4
20260509223832 62 73 5.0 6.0 0.00 0.00 0.00 98 915.4
20260509223633 62 65 0.0 5.0 0.00 0.00 0.00 98 915.4
20260509223332 62 64 4.0 8.0 0.00 0.00 0.00 97 915.4
20260509223033 62 49 4.0 8.0 0.00 0.00 0.00 97 915.3
20260509222832 62 58 4.0 8.0 0.00 0.00 0.00 97 915.4
20260509222433 62 81 5.0 8.0 0.00 0.00 0.00 97 915.3
20260509222332 62 72 6.0 8.0 0.00 0.00 0.00 97 915.2
20260509221833 62 69 6.0 9.0 0.00 0.00 0.00 97 915.2
20260509221332 62 66 7.0 9.0 0.00 0.00 0.00 97 915.2
20260509221233 62 68 7.0 9.0 0.00 0.00 0.00 97 915.1
20260509220831 62 54 6.0 8.0 0.00 0.00 0.00 97 915.1
20260509220633 62 67 4.0 6.0 0.00 0.00 0.00 97 915.2
20260509220332 62 63 4.0 7.0 0.00 0.00 0.00 97 915.3
20260509220033 62 61 3.0 8.0 0.00 0.00 0.00 98 915.2
20260509215831 62 54 5.0 8.0 0.00 0.00 0.00 97 915.2
20260509215433 62 81 5.0 8.0 0.00 0.00 0.00 97 915.1
20260509215332 62 58 5.0 8.0 0.00 0.00 0.00 97 915.2
20260509214833 62 88 7.0 8.0 0.00 0.00 0.00 98 914.9
20260509214831 62 51 7.0 8.0 0.00 0.00 0.00 98 915.0
20260509214331 62 56 6.0 9.0 0.00 0.00 0.00 97 914.8
20260509214233 62 61 6.0 9.0 0.00 0.00 0.00 97 914.9
20260509213831 62 67 6.0 9.0 0.00 0.00 0.00 97 914.9
20260509213633 62 59 7.0 9.0 0.00 0.00 0.00 97 914.8
20260509213331 62 77 6.0 8.0 0.00 0.00 0.00 97 914.8
20260509213033 62 48 6.0 8.0 0.00 0.00 0.00 97 914.7
20260509212834 62 70 6.0 8.0 0.00 0.00 0.00 97 914.8
20260509212433 62 44 6.0 8.0 0.00 0.00 0.00 97 914.8
20260509212331 62 35 5.0 7.0 0.00 0.00 0.00 97 914.8
20260509211833 62 70 4.0 8.0 0.00 0.00 0.00 97 914.8
20260509211831 62 51 4.0 8.0 0.00 0.00 0.00 97 914.8
20260509211331 62 67 6.0 8.0 0.00 0.00 0.00 97 914.7
20260509211233 62 67 6.0 8.0 0.00 0.00 0.00 97 914.7
20260509210831 62 63 5.0 7.0 0.00 0.00 0.00 97 914.8
20260509210632 62 50 6.0 7.0 0.00 0.00 0.00 97 914.8
20260509210331 62 66 5.0 9.0 0.00 0.00 0.00 97 914.8
20260509210032 62 53 5.0 9.0 0.00 0.00 0.00 97 914.8
20260509205831 62 62 6.0 9.0 0.00 0.00 0.00 97 914.8
20260509205432 62 80 7.0 9.0 0.00 0.00 0.00 97 914.6
20260509205331 62 63 7.0 9.0 0.00 0.00 0.00 97 914.6
20260509204833 62 67 5.0 8.0 0.00 0.00 0.00 97 914.7
20260509204831 62 73 5.0 8.0 0.00 0.00 0.00 97 914.7
20260509204331 62 57 5.0 8.0 0.00 0.00 0.00 97 914.7
20260509204232 62 65 6.0 8.0 0.00 0.00 0.00 97 914.7
20260509203832 62 78 5.0 7.0 0.00 0.00 0.00 97 914.7
20260509203632 62 53 5.0 8.0 0.00 0.00 0.00 97 914.7
20260509203331 62 67 5.0 9.0 0.00 0.00 0.00 97 914.7
20260509203032 62 52 5.0 9.0 0.00 0.00 0.00 97 914.7
20260509202831 62 70 5.0 9.0 0.00 0.00 0.00 97 914.6
20260509202432 62 53 6.0 9.0 0.00 0.00 0.00 97 914.6
20260509202331 62 72 6.0 9.0 0.00 0.00 0.00 97 914.6
20260509201331 62 53 4.0 10.0 0.00 0.00 0.00 97 914.8
20260509201232 62 78 5.0 10.0 0.00 0.00 0.00 97 914.7
20260509200831 62 62 9.0 10.0 0.00 0.00 0.00 97 914.5
20260509200632 62 62 8.0 10.0 0.00 0.00 0.00 97 914.5
20260509200331 62 72 8.0 10.0 0.00 0.00 0.00 98 914.6
20260509200032 62 63 8.0 10.0 0.00 0.00 0.00 97 914.5
20260509195831 62 39 8.0 10.0 0.00 0.00 0.00 97 914.6
20260509195432 62 71 7.0 10.0 0.00 0.00 0.00 97 914.6
20260509195331 62 77 7.0 10.0 0.00 0.00 0.00 97 914.6
20260509194832 62 61 8.0 10.0 0.00 0.00 0.00 97 914.6
20260509194331 62 53 7.0 10.0 0.00 0.00 0.00 98 914.6
20260509194232 62 69 6.0 8.0 0.00 0.00 0.00 98 914.6
20260509193830 62 48 6.0 8.0 0.00 0.00 0.00 97 914.7
20260509193632 62 44 6.0 9.0 0.00 0.00 0.00 98 914.7
20260509193330 62 59 6.0 9.0 0.00 0.00 0.00 98 914.7
20260509193032 62 75 7.0 11.0 0.00 0.00 0.00 98 914.6
20260509192833 62 74 7.0 11.0 0.00 0.00 0.00 98 914.7
20260509192432 62 52 8.0 11.0 0.00 0.00 0.00 97 914.7
20260509192330 62 64 8.0 11.0 0.00 0.00 0.00 97 914.7
20260509191832 62 87 7.0 9.0 0.00 0.00 0.00 97 914.8
20260509191830 62 88 7.0 9.0 0.00 0.00 0.00 97 914.7
20260509191330 62 57 6.0 8.0 0.00 0.00 0.00 98 914.8
20260509191232 62 61 6.0 9.0 0.00 0.00 0.00 98 914.8
20260509190830 62 70 4.0 9.0 0.00 0.00 0.00 98 915.0
20260509190632 62 74 5.0 9.0 0.00 0.00 0.00 98 914.9
20260509190330 62 74 7.0 9.0 0.00 0.00 0.00 98 915.0
20260509190031 62 53 5.0 9.0 0.00 0.00 0.00 98 915.0
20260509185830 62 59 6.0 9.0 0.00 0.00 0.00 98 915.0
20260509185431 62 62 5.0 8.0 0.00 0.00 0.00 98 914.8
20260509185330 62 78 5.0 8.0 0.00 0.00 0.00 98 914.8
20260509184832 62 58 5.0 7.0 0.00 0.00 0.00 98 915.0
20260509184830 62 58 5.0 7.0 0.00 0.00 0.00 98 914.9
20260509184330 62 40 4.0 11.0 0.00 0.00 0.00 98 915.0
20260509184231 62 57 4.0 11.0 0.00 0.00 0.00 98 915.0
20260509183830 62 48 7.0 11.0 0.00 0.00 0.00 98 915.0
20260509183631 62 41 8.0 11.0 0.00 0.00 0.00 98 914.9
20260509183330 62 50 9.0 11.0 0.00 0.00 0.00 98 914.9
20260509183031 62 64 7.0 12.0 0.00 0.00 0.00 98 915.0
20260509182830 62 70 6.0 12.0 0.00 0.00 0.00 98 915.1
20260509182431 62 53 7.0 12.0 0.00 0.00 0.00 98 915.0
20260509182330 62 70 8.0 12.0 0.00 0.00 0.00 98 915.1
20260509181832 62 53 7.0 10.0 0.00 0.00 0.00 98 915.0
20260509181830 62 67 7.0 10.0 0.00 0.00 0.00 98 915.0
20260509181330 62 56 9.0 10.0 0.00 0.00 0.00 98 915.0
20260509181231 62 58 8.0 11.0 0.00 0.00 0.00 98 915.1
20260509180830 62 70 7.0 11.0 0.00 0.00 0.00 98 915.1
20260509180631 62 64 8.0 11.0 0.00 0.00 0.00 98 915.1
20260509180330 62 58 9.0 12.0 0.00 0.00 0.00 98 915.1
20260509180031 62 64 7.0 12.0 0.00 0.00 0.00 98 915.2
20260509175830 62 77 9.0 12.0 0.00 0.00 0.00 98 915.2
20260509175431 62 53 10.0 12.0 0.00 0.00 0.00 98 915.1
20260509175330 62 74 10.0 12.0 0.00 0.00 0.00 98 915.1
20260509174830 62 70 8.0 12.0 0.00 0.00 0.00 98 915.2
20260509174330 62 55 9.0 12.0 0.00 0.00 0.00 98 915.2
20260509174231 62 69 9.0 12.0 0.00 0.00 0.00 98 915.2
20260509173829 62 74 10.0 12.0 0.00 0.00 0.00 98 915.2
20260509173631 62 81 10.0 12.0 0.00 0.00 0.00 98 915.2
20260509173329 61 58 1.0 10.0 0.00 0.00 0.00 99 915.2
20260509170830 62 74 10.0 13.0 0.00 0.00 0.00 98 915.4
20260509170630 62 64 1.0 12.0 0.00 0.00 0.00 98 915.5
20260509170030 62 75 10.0 14.0 0.00 0.00 0.00 98 915.5
20260509165830 62 64 10.0 13.0 0.00 0.00 0.00 97 915.5
20260509165431 62 73 10.0 12.0 0.00 0.00 0.00 98 915.5
20260509165329 62 77 9.0 12.0 0.00 0.00 0.00 98 915.5
20260509164831 62 68 9.0 13.0 0.00 0.00 0.00 98 915.6
20260509164829 62 50 9.0 13.0 0.00 0.00 0.00 98 915.6
20260509164329 62 52 10.0 13.0 0.00 0.00 0.00 98 915.5
20260509164231 62 75 9.0 13.0 0.00 0.00 0.00 98 915.6
20260509163829 62 75 6.0 12.0 0.00 0.00 0.00 98 915.7
20260509163630 62 45 0.0 0.0 0.00 0.00 0.00 98 915.8
20260509163329 62 90 11.0 15.0 0.00 0.00 0.00 98 915.7
20260509163030 62 72 10.0 15.0 0.00 0.00 0.00 98 915.8
20260509162829 62 76 11.0 15.0 0.00 0.00 0.00 98 915.9
20260509162430 62 65 0.0 11.0 0.00 0.00 0.00 98 915.9
20260509162329 62 71 12.0 14.0 0.00 0.00 0.00 98 915.9
20260509161831 62 64 10.0 14.0 0.00 0.00 0.00 98 916.0
20260509161330 62 64 10.0 14.0 0.00 0.00 0.00 98 916.0
20260509161230 62 68 11.0 14.0 0.00 0.00 0.00 98 916.0
20260509160829 62 74 10.0 14.0 0.00 0.00 0.00 98 916.2
20260509160630 62 82 10.0 14.0 0.00 0.00 0.00 98 916.2
20260509160329 62 80 10.0 14.0 0.00 0.00 0.00 98 916.2
20260509160030 62 52 10.0 14.0 0.00 0.00 0.00 98 916.3
20260509155829 62 71 9.0 14.0 0.00 0.00 0.00 98 916.3
20260509155431 62 73 9.0 13.0 0.00 0.00 0.00 98 916.3
20260509155329 62 66 10.0 13.0 0.00 0.00 0.00 98 916.4
20260509154830 62 79 10.0 13.0 0.00 0.00 0.00 98 916.4
20260509154230 62 63 1.0 10.0 0.00 0.00 0.00 98 916.6
20260509153829 62 79 1.0 11.0 0.00 0.00 0.00 98 916.5
20260509153630 62 83 10.0 13.0 0.00 0.00 0.00 98 916.5
20260509153329 62 57 9.0 12.0 0.00 0.00 0.00 98 916.6
20260509152829 62 61 6.0 11.0 0.00 0.00 0.00 98 916.6
20260509152430 62 67 9.0 11.0 0.00 0.00 0.00 98 916.7
20260509151830 62 90 7.0 10.0 0.00 0.00 0.00 98 916.6
20260509151828 62 81 7.0 10.0 0.00 0.00 0.00 98 916.6
20260509151328 62 75 7.0 10.0 0.00 0.00 0.00 98 916.7
20260509151230 62 74 7.0 11.0 0.00 0.00 0.00 98 916.7
20260509150841 62 73 7.0 11.0 0.00 0.00 0.00 98 916.7
20260509150630 62 58 8.0 11.0 0.00 0.00 0.00 98 916.7
20260509150329 62 92 7.0 11.0 0.00 0.00 0.00 99 916.7
20260509144830 62 76 0.0 9.0 0.00 0.00 0.00 98 916.7
20260509144828 62 78 0.0 9.0 0.00 0.00 0.00 98 916.7
20260509144328 62 108 2.0 10.0 0.00 0.00 0.00 98 916.7
20260509143631 62 56 0.0 0.0 0.00 0.00 0.00 98 916.7
20260509143328 62 70 8.0 10.0 0.00 0.00 0.00 98 916.7
20260509143029 62 64 9.0 10.0 0.00 0.00 0.00 98 916.7
20260509142828 62 60 8.0 9.0 0.00 0.00 0.00 98 916.7
20260509142429 62 65 3.0 9.0 0.00 0.00 0.00 98 916.7
20260509141830 62 49 7.0 9.0 0.00 0.00 0.00 98 916.8
20260509141828 62 39 7.0 9.0 0.00 0.00 0.00 98 916.7
20260509141329 62 61 0.0 7.0 0.00 0.00 0.00 98 916.8
20260509141229 62 70 8.0 10.0 0.00 0.00 0.00 98 916.8
20260509140828 62 72 8.0 10.0 0.00 0.00 0.00 98 916.7
20260509140629 62 62 8.0 10.0 0.00 0.00 0.00 98 916.8
20260509140328 62 81 8.0 9.0 0.00 0.00 0.00 98 916.7
20260509140029 62 64 8.0 9.0 0.00 0.00 0.00 98 916.7
20260509135828 62 59 3.0 9.0 0.00 0.00 0.00 98 916.7
20260509135429 62 70 8.0 12.0 0.00 0.00 0.00 98 916.8
20260509135328 62 51 8.0 12.0 0.00 0.00 0.00 98 916.7
20260509134830 62 63 9.0 12.0 0.00 0.00 0.00 98 916.7
20260509134828 62 70 9.0 12.0 0.00 0.00 0.00 98 916.7
20260509134328 62 84 10.0 12.0 0.00 0.00 0.00 98 916.7
20260509134229 62 65 10.0 12.0 0.00 0.00 0.00 98 916.7
20260509133828 62 71 9.0 10.0 0.00 0.00 0.00 98 916.7
20260509133629 62 83 8.0 10.0 0.00 0.00 0.00 98 916.7
20260509133328 62 74 8.0 11.0 0.00 0.00 0.00 98 916.8
20260509133029 62 61 8.0 10.0 0.00 0.00 0.00 98 916.8
20260509132828 62 75 8.0 10.0 0.00 0.00 0.00 98 916.7
20260509132429 62 72 8.0 10.0 0.00 0.00 0.00 98 916.7
20260509132328 62 51 4.0 10.0 0.00 0.00 0.00 98 916.7
20260509131829 62 78 7.0 10.0 0.00 0.00 0.00 98 916.7
20260509131827 62 69 7.0 10.0 0.00 0.00 0.00 98 916.7
20260509131327 62 83 7.0 10.0 0.00 0.00 0.00 98 916.6
20260509131229 62 74 2.0 10.0 0.00 0.00 0.00 98 916.6
20260509130828 62 52 7.0 10.0 0.00 0.00 0.00 98 916.5
20260509130629 62 59 4.0 8.0 0.00 0.00 0.00 98 916.5
20260509130327 62 59 8.0 10.0 0.00 0.00 0.00 98 916.5
20260509130029 62 61 7.0 9.0 0.00 0.00 0.00 98 916.4
20260509125827 62 67 2.0 7.0 0.00 0.00 0.00 98 916.4
20260509125429 62 70 1.0 8.0 0.00 0.00 0.00 98 916.3
20260509125327 62 67 6.0 8.0 0.00 0.00 0.00 98 916.3
20260509124829 62 89 7.0 9.0 0.00 0.00 0.00 98 916.2
20260509124827 62 77 7.0 9.0 0.00 0.00 0.00 98 916.3
20260509124328 62 74 3.0 9.0 0.00 0.00 0.00 98 916.2
20260509123827 62 72 7.0 9.0 0.00 0.00 0.00 98 916.2
20260509123628 62 68 7.0 9.0 0.00 0.00 0.00 98 916.1
20260509123327 62 53 6.0 8.0 0.00 0.00 0.00 98 916.2
20260509123029 62 55 5.0 8.0 0.00 0.00 0.00 99 916.1
20260509120327 62 59 8.0 10.0 0.00 0.00 0.00 98 915.6
20260509120028 62 56 0.0 9.0 0.00 0.00 0.00 98 915.5
20260509115827 62 72 8.0 10.0 0.00 0.00 0.00 98 915.6
20260509115428 62 62 0.0 9.0 0.00 0.00 0.00 98 915.5
20260509114830 62 73 8.0 11.0 0.00 0.00 0.00 98 915.5
20260509114828 62 61 8.0 11.0 0.00 0.00 0.00 98 915.5
20260509114327 62 49 8.0 11.0 0.00 0.00 0.00 98 915.6
20260509114228 62 72 8.0 11.0 0.00 0.00 0.00 98 915.6
20260509113827 62 66 5.0 10.0 0.00 0.00 0.00 98 915.6
20260509113327 62 58 6.0 8.0 0.00 0.00 0.00 98 915.5
20260509113028 62 53 6.0 8.0 0.00 0.00 0.00 98 915.5
20260509112827 61 45 0.0 7.0 0.00 0.00 0.00 98 915.5
20260509112428 62 68 3.0 8.0 0.00 0.00 0.00 98 915.4
20260509112327 62 72 0.0 8.0 0.00 0.00 0.00 97 915.4
20260509111828 62 59 8.0 10.0 0.00 0.00 0.00 98 915.3
20260509111826 62 51 8.0 10.0 0.00 0.00 0.00 98 915.4
20260509111327 62 66 8.0 10.0 0.00 0.00 0.00 98 915.3
20260509111228 62 64 8.0 10.0 0.00 0.00 0.00 98 915.4
20260509110826 62 45 6.0 7.0 0.00 0.00 0.00 97 915.5
20260509110628 62 64 5.0 6.0 0.00 0.00 0.00 97 915.5
20260509110326 62 67 4.0 5.0 0.00 0.00 0.00 98 915.6
20260509110028 62 54 4.0 6.0 0.00 0.00 0.00 98 915.5
20260509105428 62 81 4.0 6.0 0.00 0.00 0.00 98 915.5
20260509104828 62 76 4.0 6.0 0.00 0.00 0.00 97 915.5
20260509104228 62 77 4.0 6.0 0.00 0.00 0.00 97 915.5
20260509103628 62 51 4.0 5.0 0.00 0.00 0.00 97 915.5
20260509103028 62 64 3.0 4.0 0.00 0.00 0.00 98 915.5
20260509102428 62 81 3.0 4.0 0.00 0.00 0.00 98 915.4
20260509102327 62 57 3.0 4.0 0.00 0.00 0.00 98 915.4
20260509101828 62 64 1.0 4.0 0.00 0.00 0.00 98 915.3
20260509101826 62 55 1.0 4.0 0.00 0.00 0.00 98 915.4
20260509101326 62 64 2.0 5.0 0.00 0.00 0.00 98 915.3
20260509101227 61 50 0.0 3.0 0.00 0.00 0.00 97 915.3
20260509100826 62 51 5.0 6.0 0.00 0.00 0.00 98 915.3
20260509100627 62 46 5.0 6.0 0.00 0.00 0.00 98 915.3
20260509100326 62 58 5.0 6.0 0.00 0.00 0.00 98 915.3
20260509100027 62 64 3.0 7.0 0.00 0.00 0.00 98 915.3
20260509095826 62 55 5.0 7.0 0.00 0.00 0.00 98 915.2
20260509095326 62 60 5.0 7.0 0.00 0.00 0.00 98 915.2
20260509094828 62 71 6.0 7.0 0.00 0.00 0.00 98 915.2
20260509094826 62 64 6.0 7.0 0.00 0.00 0.00 98 915.2
20260509094326 62 64 3.0 7.0 0.00 0.00 0.00 98 915.2
20260509094228 62 68 4.0 7.0 0.00 0.00 0.00 98 915.2
20260509093826 62 67 4.0 8.0 0.00 0.00 0.00 97 915.2
20260509093627 62 63 4.0 8.0 0.00 0.00 0.00 98 915.2
20260509093327 62 74 6.0 8.0 0.00 0.00 0.00 98 915.1
20260509093027 62 81 3.0 7.0 0.00 0.00 0.00 98 915.1
20260509092826 61 69 1.0 7.0 0.00 0.00 0.00 98 915.1
20260509092427 61 53 0.0 5.0 0.00 0.00 0.00 98 915.1
20260509092327 61 63 0.0 4.0 0.00 0.00 0.00 98 915.1
20260509091827 61 61 1.0 7.0 0.00 0.00 0.00 98 915.0
20260509091326 61 69 5.0 10.0 0.00 0.00 0.00 98 915.0
20260509091227 61 64 6.0 10.0 0.00 0.00 0.00 97 915.0
20260509090827 61 70 6.0 10.0 0.00 0.00 0.00 97 915.0
20260509090627 62 82 7.0 10.0 0.00 0.00 0.00 98 915.0
20260509090326 62 63 5.0 8.0 0.00 0.00 0.00 98 915.0
20260509090027 62 77 0.0 6.0 0.00 0.00 0.00 98 915.0
20260509085826 62 65 5.0 8.0 0.00 0.00 0.00 98 915.0
20260509085427 62 79 5.0 8.0 0.00 0.00 0.00 98 914.9
20260509085325 62 62 6.0 8.0 0.00 0.00 0.00 98 914.9
20260509084827 62 73 8.0 10.0 0.00 0.00 0.00 98 914.8
20260509084825 62 64 8.0 10.0 0.00 0.00 0.00 98 914.9
20260509084325 62 82 3.0 8.0 0.00 0.00 0.00 98 914.8
20260509084228 62 71 3.0 10.0 0.00 0.00 0.00 98 914.8
20260509083826 62 68 4.0 9.0 0.00 0.00 0.00 98 914.9
20260509083627 62 69 6.0 9.0 0.00 0.00 0.00 98 914.8
20260509083325 61 70 0.0 7.0 0.00 0.00 0.00 99 914.9
20260509080325 62 73 7.0 10.0 0.00 0.00 0.00 98 914.9
20260509080026 62 62 4.0 9.0 0.00 0.00 0.00 98 914.9
20260509075426 62 71 7.0 11.0 0.00 0.00 0.00 98 914.9
20260509075326 62 59 7.0 10.0 0.00 0.00 0.00 98 914.9
20260509074226 62 74 10.0 13.0 0.00 0.00 0.00 98 914.8
20260509073825 62 79 8.0 10.0 0.00 0.00 0.00 98 914.8
20260509073626 62 85 8.0 10.0 0.00 0.00 0.00 98 914.9
20260509073026 62 82 8.0 9.0 0.00 0.00 0.00 98 915.0
20260509072825 62 80 7.0 9.0 0.00 0.00 0.00 98 915.0
20260509072426 62 75 7.0 8.0 0.00 0.00 0.00 98 915.0
20260509072326 62 66 6.0 8.0 0.00 0.00 0.00 98 915.1
20260509071226 62 68 5.0 10.0 0.00 0.00 0.00 98 915.1
20260509070626 62 89 9.0 10.0 0.00 0.00 0.00 98 915.1
20260509070324 62 68 2.0 10.0 0.00 0.00 0.00 98 915.1
20260509070026 62 98 4.0 10.0 0.00 0.00 0.00 98 915.1
20260509065825 62 75 6.0 12.0 0.00 0.00 0.00 98 915.2
20260509065426 62 58 4.0 12.0 0.00 0.00 0.00 98 915.2
20260509063825 61 71 0.0 0.0 0.00 0.00 0.00 99 915.3
20260509063028 61 79 0.0 0.0 0.00 0.00 0.00 99 915.4
20260509061826 62 105 1.0 12.0 0.00 0.00 0.00 99 915.4
20260509061824 62 60 1.0 12.0 0.00 0.00 0.00 99 915.4
20260509060324 61 78 0.0 9.0 0.00 0.00 0.00 99 915.6
20260509054827 62 77 0.0 0.0 0.00 0.00 0.00 98 915.7
20260509054324 62 69 2.0 9.0 0.00 0.00 0.00 98 915.8
20260509054225 62 79 8.0 11.0 0.00 0.00 0.00 98 915.7
20260509053824 62 69 3.0 11.0 0.00 0.00 0.00 98 915.8
20260509053625 62 91 3.0 10.0 0.00 0.00 0.00 98 915.9
20260509053025 62 60 1.0 10.0 0.00 0.00 0.00 98 916.0
20260509051225 62 57 1.0 7.0 0.00 0.00 0.00 98 916.3
20260509050824 62 63 5.0 12.0 0.00 0.00 0.00 99 916.3
20260509044324 62 83 8.0 16.0 0.00 0.00 0.00 98 916.3
20260509044225 62 63 2.0 16.0 0.00 0.00 0.00 98 916.3
20260509043824 62 67 12.0 16.0 0.00 0.00 0.00 98 916.3
20260509043625 62 75 12.0 16.0 0.00 0.00 0.00 98 916.3
20260509043326 62 75 4.0 16.0 0.00 0.00 0.00 98 916.4
20260509042425 62 102 15.0 19.0 0.00 0.00 0.00 98 916.6
20260509042323 62 58 14.0 18.0 0.00 0.00 0.00 98 916.6
20260509041825 62 61 2.0 15.0 0.00 0.00 0.00 98 916.8
20260509041823 62 83 2.0 15.0 0.00 0.00 0.00 98 916.8
20260509041324 62 73 6.0 13.0 0.00 0.00 0.00 98 916.8
20260509041224 62 73 0.0 12.0 0.00 0.00 0.00 98 916.9
20260509040823 62 82 13.0 15.0 0.00 0.00 0.00 98 916.8
20260509040625 62 73 6.0 15.0 0.00 0.00 0.00 99 916.9
20260509033024 62 66 11.0 15.0 0.00 0.00 0.00 98 917.0
20260509032823 62 75 11.0 14.0 0.00 0.00 0.00 98 917.0
20260509032424 62 54 1.0 12.0 0.00 0.00 0.00 98 917.0
20260509032323 62 71 13.0 17.0 0.00 0.00 0.00 98 917.0
20260509031825 62 69 0.0 0.0 0.00 0.00 0.00 98 917.0
20260509031323 62 63 14.0 18.0 0.00 0.00 0.00 98 917.0
20260509031224 62 78 15.0 18.0 0.00 0.00 0.00 98 917.0
20260509030823 62 44 5.0 17.0 0.00 0.00 0.00 98 917.0